[[{"header":{"parameterUnit":"m.s-1","parameterCategory":1,"la1":30.2991,"la2":30.254,"lo1":-89.0895,"lo2":-89.0444,"dy":0.0017,"dx":0.0017,"nx":28,"ny":28,"refTime":"2024-08-08T21:00:00:Z","depth":0,"parameterNumber":2,"parameterNumberName":"U-component_of_WINDS"},"data":[0,0,0,0,0,0,0,0,0,0,0,0,0,0,0,0,0,0,0,0,0,0,0,0,0,0,0,0,0,0,0,0,0,0,0,0,0,0,0,0,0,0,0,0,0,0,0,0,0,0,0,0,0,0,0,0,0,0,-0.2275,-0.2274,0,-0.2167,-0.2166,-0.2164,-0.2124,-0.2125,-0.2125,-0.2125,-0.2011,-0.2007,-0.2004,0,0,0,0,0,0,0,0,0,0,0,0,0,-0.2444,-0.2441,-0.2276,-0.2274,-0.2273,-0.2167,-0.2166,-0.2164,-0.2124,-0.2125,-0.2125,-0.2125,-0.2012,-0.2008,-0.2004,0,0,0,0,0,0,0,0,0,0,0,0,0,-0.2356,-0.244,-0.2276,-0.224,-0.2236,-0.2167,-0.2165,-0.2164,-0.2124,-0.2125,-0.2125,-0.2126,-0.2013,-0.2008,-0.2003,-0.1961,0,0,-0.1988,-0.1985,0,0,0,0,0,0,0,0,-0.2361,-0.235,-0.2247,-0.2243,-0.2238,-0.216,-0.2183,-0.2096,-0.2124,-0.2166,-0.2125,-0.2126,-0.206,-0.2051,-0.2029,-0.1955,-0.1951,-0.1987,-0.1984,-0.1982,-0.198,0,0,0,0,0,0,0,-0.2367,-0.2355,-0.2232,-0.2245,-0.224,-0.2228,-0.2216,-0.2166,-0.2111,-0.2163,-0.216,-0.2147,-0.2057,-0.2034,-0.2026,-0.1949,-0.1987,-0.1983,-0.198,-0.1978,-0.1832,-0.1831,0,0,0,0,0,0,-0.238,-0.236,-0.2236,-0.2229,-0.2302,-0.2225,-0.2211,-0.2184,-0.2112,-0.2101,-0.2147,-0.2146,-0.2042,-0.2032,-0.2022,-0.1965,-0.1982,-0.1977,-0.1974,-0.1832,-0.1831,-0.183,0,0,0,0,0,0,-0.2384,-0.2369,-0.224,-0.2294,-0.2276,-0.2221,-0.2191,-0.2182,-0.2159,-0.21,-0.2089,-0.2134,-0.2042,-0.2029,-0.1976,-0.1961,-0.1975,-0.197,-0.1833,-0.1832,-0.1831,-0.1854,0,0,0,0,0,0,-0.2389,-0.2371,-0.2356,-0.2294,-0.2274,-0.2198,-0.219,-0.2179,-0.215,-0.2148,-0.2085,-0.2075,-0.2042,-0.1984,-0.1971,-0.1954,-0.1966,-0.1834,-0.1833,-0.1831,-0.1854,-0.1854,-0.1853,0,0,0,0,0,-0.2395,-0.2367,-0.2355,-0.234,-0.2254,-0.2197,-0.2185,-0.2149,-0.2149,-0.2132,-0.2094,-0.2077,-0.1965,-0.1979,-0.1964,-0.1945,-0.1835,-0.1833,-0.1831,-0.1855,-0.1854,-0.1853,0,0,0,0,0,0,-0.2428,-0.2358,-0.2344,-0.2296,-0.2253,-0.2191,-0.2169,-0.215,-0.2106,-0.2105,-0.2061,-0.2047,-0.1996,-0.1965,-0.1982,-0.1899,-0.1899,-0.1894,-0.1921,-0.192,-0.192,-0.1928,-0.1962,0,0,0,0,0,-0.243,-0.2391,-0.2331,-0.2294,-0.2273,-0.2224,-0.2198,-0.2174,-0.2127,-0.2109,-0.2067,-0.2021,-0.1975,-0.1946,-0.1901,-0.1849,-0.1834,-0.1829,-0.1829,-0.1829,-0.1825,-0.1792,-0.1789,-0.1824,-0.1824,-0.1824,0,0,-0.2433,-0.2389,-0.2368,-0.2299,-0.2263,-0.2222,-0.2209,-0.2167,-0.2136,-0.2102,-0.2049,-0.2016,-0.1962,-0.1909,-0.1883,-0.1882,-0.1811,-0.1826,-0.1827,-0.1822,-0.179,-0.1787,-0.1784,-0.1823,-0.1823,-0.1823,0,0,-0.2417,-0.2381,-0.2345,-0.2309,-0.2254,-0.2222,-0.2213,-0.2153,-0.213,-0.2076,-0.2049,-0.201,-0.1933,-0.1894,-0.1865,-0.1832,-0.1813,-0.1818,-0.1815,-0.1784,-0.1781,-0.1778,-0.1764,-0.176,-0.1814,-0.1814,-0.1814,0,-0.2427,-0.2366,-0.2328,-0.2287,-0.2256,-0.2224,-0.2185,-0.2152,-0.2085,-0.2064,-0.2063,-0.1963,-0.1925,-0.1861,-0.1853,-0.183,-0.1817,-0.1825,-0.1785,-0.1782,-0.1778,-0.1764,-0.176,-0.1815,-0.1815,-0.1815,-0.1815,0,-0.238,-0.2338,-0.2314,-0.2251,-0.2218,-0.2178,-0.2133,-0.2103,-0.2081,-0.2048,-0.1991,-0.1944,-0.1887,-0.187,-0.1848,-0.1802,-0.1802,-0.1794,-0.1792,-0.1777,-0.1763,-0.1757,-0.1816,-0.1816,-0.1816,-0.1816,0,0,-0.2384,-0.2298,-0.229,-0.226,-0.2196,-0.2162,-0.2119,-0.2064,-0.2039,-0.1993,-0.1954,-0.1889,-0.1879,-0.1846,-0.1819,-0.1792,-0.1765,-0.1785,-0.1783,-0.1782,-0.1708,-0.1715,-0.1709,-0.1752,-0.1751,-0.175,-0.1712,0,-0.2358,-0.2283,-0.2246,-0.2185,-0.2144,-0.2111,-0.2074,-0.2029,-0.1997,-0.1955,-0.1918,-0.1872,-0.1864,-0.1843,-0.1815,-0.1775,-0.175,-0.1777,-0.1714,-0.1712,-0.1728,-0.1702,-0.1709,-0.1676,-0.1707,-0.1706,-0.1705,0,-0.232,-0.2274,-0.2209,-0.2148,-0.2129,-0.2096,-0.2041,-0.2003,-0.195,-0.1928,-0.189,-0.1863,-0.1814,-0.1816,-0.1747,-0.1766,-0.1738,-0.1714,-0.1712,-0.1704,-0.1707,-0.1692,-0.1665,-0.1659,-0.1697,-0.1697,-0.1698,0,-0.2327,-0.2249,-0.2199,-0.2174,-0.2102,-0.2079,-0.2047,-0.1996,-0.1964,-0.1916,-0.1894,-0.184,-0.1811,-0.1768,-0.1727,-0.1733,-0.1661,-0.166,-0.1639,-0.164,-0.1625,-0.1626,-0.1591,-0.1609,-0.1609,-0.1609,-0.1609,0,-0.2302,-0.2263,-0.2201,-0.2171,-0.2125,-0.2082,-0.2038,-0.2003,-0.1957,-0.1918,-0.1886,-0.1849,-0.1797,-0.1753,-0.172,-0.1666,-0.1653,-0.1632,-0.1623,-0.1634,-0.1636,-0.1614,-0.1615,-0.1608,-0.1608,-0.1608,-0.1609,0,-0.2303,-0.226,-0.2203,-0.2139,-0.2121,-0.209,-0.2034,-0.2001,-0.1966,-0.1917,-0.1902,-0.1847,-0.1793,-0.1747,-0.1676,-0.1654,-0.1597,-0.1588,-0.1615,-0.161,-0.1591,-0.1593,-0.1539,-0.1529,-0.1556,-0.1556,-0.1555,0,-0.2289,-0.2259,-0.219,-0.2162,-0.2131,-0.2085,-0.2053,-0.2008,-0.1975,-0.1911,-0.1886,-0.183,-0.1783,-0.1697,-0.1649,-0.1594,-0.1582,-0.1567,-0.1573,-0.1584,-0.1579,-0.1581,-0.1576,-0.1566,-0.1566,-0.1566,-0.1566,0,-0.227,-0.2249,-0.2204,-0.215,-0.2112,-0.2068,-0.2022,-0.2,-0.1947,-0.191,-0.1855,-0.1818,-0.1745,-0.1689,-0.1627,-0.1593,-0.1569,-0.1565,-0.1556,-0.1567,-0.1583,-0.1572,-0.1612,-0.1566,-0.1566,-0.1566,-0.1566,-0.1566,-0.2262,-0.2232,-0.2178,-0.2128,-0.2089,-0.2046,-0.2012,-0.1972,-0.1925,-0.1863,-0.1839,-0.1782,-0.1726,-0.1642,-0.1607,-0.1559,-0.1556,-0.1545,-0.1542,-0.1539,-0.154,-0.1591,-0.1548,-0.1548,-0.1548,-0.1548,-0.1548,0,-0.2239,-0.2203,-0.2157,-0.2093,-0.2053,-0.2035,-0.1983,-0.195,-0.19,-0.1851,-0.1805,-0.1739,-0.1684,-0.1631,-0.1572,-0.1544,-0.1531,-0.1529,-0.153,-0.1522,-0.1547,-0.1559,-0.154,-0.154,-0.154,-0.154,-0.154,-0.154,-0.2223,-0.217,-0.2143,-0.2069,-0.2032,-0.1977,-0.1948,-0.1907,-0.1868,-0.1796,-0.175,-0.1716,-0.1664,-0.1601,-0.1548,-0.1533,-0.1512,-0.1513,-0.1495,-0.1519,-0.1521,-0.1522,-0.1533,-0.1509,-0.1509,-0.1473,-0.1473,-0.1473]},{"header":{"parameterUnit":"m.s-1","parameterCategory":1,"la1":30.2991,"la2":30.254,"lo1":-89.0895,"lo2":-89.0444,"dy":0.0017,"dx":0.0017,"nx":28,"ny":28,"refTime":"2024-08-08T21:00:00:Z","depth":0,"parameterNumber":3,"parameterNumberName":"V-component_of_WINDS"},"data":[0,0,0,0,0,0,0,0,0,0,0,0,0,0,0,0,0,0,0,0,0,0,0,0,0,0,0,0,0,0,0,0,0,0,0,0,0,0,0,0,0,0,0,0,0,0,0,0,0,0,0,0,0,0,0,0,0,0,-1.9636,-1.9635,0,-1.9502,-1.95,-1.9499,-1.9474,-1.9475,-1.9476,-1.9477,-1.9336,-1.9331,-1.9326,0,0,0,0,0,0,0,0,0,0,0,0,0,-1.9866,-1.9862,-1.9636,-1.9635,-1.9633,-1.9502,-1.95,-1.9498,-1.9474,-1.9475,-1.9476,-1.9478,-1.9337,-1.9332,-1.9326,0,0,0,0,0,0,0,0,0,0,0,0,0,-1.9753,-1.9861,-1.9637,-1.9605,-1.9601,-1.9502,-1.95,-1.9498,-1.9473,-1.9475,-1.9477,-1.9478,-1.9339,-1.9332,-1.9325,-1.9248,0,0,-1.9303,-1.93,0,0,0,0,0,0,0,0,-1.9759,-1.9744,-1.9611,-1.9607,-1.9602,-1.9506,-1.9529,-1.9414,-1.9473,-1.9522,-1.9477,-1.9479,-1.9391,-1.938,-1.9351,-1.9241,-1.9235,-1.9303,-1.9298,-1.9295,-1.9293,0,0,0,0,0,0,0,-1.9767,-1.975,-1.9583,-1.9609,-1.9604,-1.9596,-1.9581,-1.9507,-1.9449,-1.9518,-1.9516,-1.95,-1.9389,-1.9358,-1.9347,-1.9233,-1.9303,-1.9296,-1.9292,-1.9289,-1.9049,-1.9047,0,0,0,0,0,0,-1.9781,-1.9757,-1.9587,-1.9579,-1.9686,-1.959,-1.9574,-1.9535,-1.9449,-1.9438,-1.9499,-1.9499,-1.9369,-1.9356,-1.9342,-1.9242,-1.9295,-1.9288,-1.9284,-1.9051,-1.9048,-1.9046,0,0,0,0,0,0,-1.9786,-1.9766,-1.9593,-1.9667,-1.9644,-1.9585,-1.9541,-1.9532,-1.9501,-1.9435,-1.9424,-1.9478,-1.937,-1.9352,-1.9271,-1.9237,-1.9285,-1.9279,-1.9053,-1.905,-1.9047,-1.9044,0,0,0,0,0,0,-1.9793,-1.9768,-1.974,-1.9667,-1.9641,-1.9525,-1.9539,-1.9528,-1.9489,-1.9488,-1.9413,-1.9402,-1.937,-1.9281,-1.9263,-1.9228,-1.9273,-1.9056,-1.9052,-1.9048,-1.9047,-1.9041,-1.9036,0,0,0,0,0,-1.9801,-1.9744,-1.9738,-1.9718,-1.9604,-1.9523,-1.9508,-1.9473,-1.9486,-1.9456,-1.9413,-1.9404,-1.9245,-1.9273,-1.9253,-1.9215,-1.9058,-1.9053,-1.9048,-1.9049,-1.9042,-1.9036,0,0,0,0,0,0,-1.9814,-1.9734,-1.9727,-1.9645,-1.9591,-1.9519,-1.9479,-1.9468,-1.9408,-1.941,-1.9369,-1.9352,-1.9271,-1.9236,-1.9269,-1.9133,-1.9152,-1.9143,-1.9159,-1.9152,-1.9147,-1.9156,-1.9267,0,0,0,0,0,-1.9807,-1.975,-1.9683,-1.9617,-1.9591,-1.954,-1.9504,-1.9481,-1.9424,-1.94,-1.9352,-1.9295,-1.9231,-1.919,-1.9129,-1.9042,-1.9023,-1.9006,-1.9001,-1.8997,-1.8988,-1.8936,-1.8926,-1.903,-1.903,-1.9031,0,0,-1.9793,-1.9742,-1.9708,-1.9618,-1.9574,-1.9513,-1.9521,-1.9457,-1.9411,-1.939,-1.9309,-1.9272,-1.9205,-1.912,-1.908,-1.9087,-1.8955,-1.8991,-1.8988,-1.8981,-1.893,-1.892,-1.8911,-1.9027,-1.9028,-1.9028,0,0,-1.9734,-1.9692,-1.963,-1.9586,-1.9519,-1.9485,-1.947,-1.94,-1.9374,-1.9293,-1.9275,-1.9219,-1.9112,-1.9064,-1.9025,-1.8947,-1.8935,-1.8928,-1.8899,-1.8849,-1.884,-1.8833,-1.8801,-1.879,-1.8921,-1.8921,-1.8921,0,-1.9724,-1.9633,-1.96,-1.9536,-1.9495,-1.9475,-1.941,-1.9368,-1.9284,-1.9256,-1.9266,-1.9128,-1.9083,-1.8984,-1.8964,-1.8936,-1.8914,-1.8935,-1.8845,-1.8837,-1.8829,-1.8798,-1.8786,-1.892,-1.892,-1.892,-1.892,0,-1.9621,-1.9559,-1.9517,-1.9436,-1.9391,-1.9327,-1.9282,-1.924,-1.9222,-1.9187,-1.9102,-1.9047,-1.8971,-1.8947,-1.8929,-1.8844,-1.885,-1.8854,-1.887,-1.8819,-1.8788,-1.8777,-1.8919,-1.8919,-1.8919,-1.892,0,0,-1.9566,-1.9467,-1.9452,-1.9413,-1.9337,-1.9287,-1.9221,-1.9149,-1.9111,-1.9054,-1.8995,-1.8905,-1.8906,-1.8862,-1.8838,-1.8795,-1.8731,-1.8802,-1.88,-1.8787,-1.8629,-1.8624,-1.8611,-1.8724,-1.8722,-1.872,-1.8633,0,-1.9495,-1.9378,-1.9345,-1.9245,-1.9184,-1.9164,-1.9106,-1.9052,-1.9017,-1.8959,-1.892,-1.8854,-1.8863,-1.8836,-1.8792,-1.8748,-1.8698,-1.8754,-1.8665,-1.8662,-1.8678,-1.8596,-1.8591,-1.8512,-1.8622,-1.862,-1.8618,0,-1.9396,-1.9336,-1.923,-1.9159,-1.9133,-1.9081,-1.901,-1.8956,-1.8893,-1.8871,-1.8822,-1.8801,-1.8729,-1.8753,-1.8651,-1.869,-1.8652,-1.8624,-1.862,-1.8607,-1.8634,-1.8577,-1.8487,-1.8473,-1.86,-1.8602,-1.8603,0,-1.936,-1.9254,-1.9176,-1.9144,-1.9061,-1.9024,-1.8987,-1.8927,-1.8884,-1.8822,-1.8793,-1.8723,-1.8684,-1.863,-1.859,-1.8612,-1.8489,-1.8511,-1.8465,-1.8466,-1.8437,-1.8439,-1.8336,-1.842,-1.8421,-1.8421,-1.8421,0,-1.9282,-1.9217,-1.9158,-1.9109,-1.9035,-1.8997,-1.8924,-1.8886,-1.8832,-1.8773,-1.8753,-1.8698,-1.8651,-1.8589,-1.8558,-1.8476,-1.846,-1.8437,-1.8428,-1.8436,-1.8438,-1.8407,-1.841,-1.8418,-1.8418,-1.8419,-1.8419,0,-1.9228,-1.9187,-1.9099,-1.9027,-1.9008,-1.8955,-1.8892,-1.8843,-1.8808,-1.8734,-1.8715,-1.8658,-1.8584,-1.854,-1.8448,-1.8426,-1.8333,-1.833,-1.8354,-1.835,-1.8305,-1.8308,-1.8174,-1.8153,-1.8257,-1.8256,-1.8255,0,-1.9179,-1.9128,-1.9051,-1.901,-1.8973,-1.8909,-1.8865,-1.8826,-1.8781,-1.8704,-1.8663,-1.8589,-1.8526,-1.8409,-1.8358,-1.8286,-1.8277,-1.8236,-1.8266,-1.8274,-1.8271,-1.8272,-1.8265,-1.8229,-1.8228,-1.8227,-1.8227,0,-1.9094,-1.9076,-1.9014,-1.8944,-1.8892,-1.8835,-1.8778,-1.8746,-1.8697,-1.8647,-1.8572,-1.8523,-1.8428,-1.8352,-1.8275,-1.8235,-1.8221,-1.8218,-1.8203,-1.8208,-1.8222,-1.8209,-1.8335,-1.822,-1.8221,-1.8222,-1.8222,-1.8222,-1.9038,-1.899,-1.8927,-1.8858,-1.8811,-1.8758,-1.8707,-1.8665,-1.8602,-1.8521,-1.8502,-1.8421,-1.8357,-1.8253,-1.8211,-1.8146,-1.8152,-1.8131,-1.8125,-1.8119,-1.8115,-1.8237,-1.8132,-1.8132,-1.8133,-1.8133,-1.8133,0,-1.8948,-1.8907,-1.8844,-1.8764,-1.8709,-1.8703,-1.8639,-1.8592,-1.8522,-1.8464,-1.8403,-1.8314,-1.824,-1.8184,-1.8108,-1.8066,-1.8057,-1.8047,-1.8047,-1.8037,-1.8117,-1.8135,-1.8055,-1.8055,-1.8055,-1.8055,-1.8055,-1.8055,-1.8894,-1.8812,-1.8786,-1.8679,-1.8637,-1.8559,-1.8522,-1.8472,-1.8425,-1.8327,-1.8265,-1.823,-1.8171,-1.809,-1.8021,-1.8006,-1.7977,-1.7967,-1.795,-1.8024,-1.8032,-1.804,-1.8057,-1.7962,-1.7962,-1.7875,-1.7874,-1.7874]}]]